Weather in Palatovo

Russia / Belgorod Oblast     50°24′47″N   38°09′32″E
temp.,
°C
wind,
m/s
gust,
m/s
humid.,
%
clouds,
%
prec.,
mm/h
press.,
hPa
HPBL,
m
16 april, fri
fri1600:00+8s22895 0.1 101534
03:00+7sse36923 0.1 1015124
06:00+6sse36925 0.0 1016161
09:00+10sse576921 0.0 1017913
12:00+14s684834 0.1 10161990
15:00+13s5750100 0.1 10171627
18:00+12ssw3457100 0.0 1017554
21:00+8sse227099 0.0 101829
17 april, sat
sat1700:00+8sw24749 0.0 1018167
03:00+7nw118198 0.0 101835
06:00+7se118544 0.4 101840
09:00+10ssw2366100 0.4 1018741
12:00+12sw445295 0.8 10191663
15:00+12sw5446100 0.8 10191645
18:00+11wsw455380 0.0 10191291
21:00+7sw377435 0.0 1020176
18 april, sun
sun1800:00+5wsw368313 0.0 1021153
03:00+5wsw228851 0.0 102060
06:00+5sw358730 0.0 1020338
09:00+7w457285 0.0 1020802
12:00+10w465592 0.0 10191524
15:00+11wsw2452100 0.0 10191259
18:00+10sse236166 0.1 1019652
21:00+7sse22757 0.1 101917
19 april, mon
mon1900:00+6sse227910 0.0 101912
03:00+5s118166 0.0 101911
06:00+6ese127895 0.0 101914
09:00+10e236483 0.0 1019394
12:00+14ese344692 0.1 10171912
15:00+14e344197 0.1 10161705
18:00+13e4652100 0.0 1016346
21:00+10ene5116280 0.0 1014313
20 april, tue
tue2000:00+9e71387100 0.0 1014454
03:00+9e81588100 0.0 1011829
06:00+7ene91791100 1.3 1007852
09:00+7e122293100 6.7 1002896
12:00+9ese112193100 3.8 9991242
15:00+13s7128223 5.7 999901
18:00+14sse8136898 0.5 1000912
21:00+10sse101679100 0.7 1003824